Wind_Speed
49 49 48 46 44 43 43 41 41 39 39 38 37 36 35 34 33 33 33 34 34 34 34 34 34 34 35 35 35 35 35 35 36 35 35 35 36 37 38 39 39 40 40
48 48 48 47 46 45 43 42 41 41 40 40 39 39 39 38 37 35 35 36 37 36 36 36 37 37 37 37 38 38 38 39 39 39 39 38 38 39 40 41 41 42 42
45 46 46 46 45 44 44 43 43 43 41 41 42 41 41 40 40 39 39 39 40 39 38 39 39 39 39 39 40 41 41 41 41 42 42 42 41 40 40 41 42 43 43
44 44 44 44 44 44 44 44 44 44 43 43 43 43 43 42 42 43 43 43 42 42 42 42 42 42 42 42 43 43 43 43 42 43 44 45 45 44 43 42 43 43 43
41 41 42 43 43 44 45 44 44 44 44 44 44 44 44 44 44 45 45 45 44 44 44 44 45 44 45 45 45 44 44 44 44 44 45 45 46 46 47 45 44 44 44
39 40 41 42 43 43 44 44 44 44 44 45 45 45 45 46 46 47 47 47 47 47 47 47 47 46 46 46 47 47 47 47 47 47 47 47 47 48 48 47 47 45 44
36 38 40 41 41 42 43 43 44 45 45 45 46 46 46 46 47 47 48 48 48 49 49 49 49 49 49 49 49 49 49 49 48 48 48 48 49 49 49 48 47 46 45
35 36 37 39 40 41 42 43 43 44 45 45 46 47 47 48 48 49 49 49 50 50 50 50 51 51 51 51 51 51 51 50 49 49 49 49 49 49 48 47 46 45 44
34 36 37 38 40 41 42 43 44 45 45 45 45 46 46 47 48 49 50 50 51 51 51 51 52 52 52 53 52 52 51 51 51 50 50 49 49 48 47 47 46 46 45
34 34 35 36 38 40 42 42 43 43 44 45 46 47 48 48 49 50 51 52 52 52 52 51 52 52 52 52 52 52 51 51 51 50 50 49 49 48 48 47 47 47 46
33 34 35 36 37 38 39 41 42 43 44 45 46 47 48 48 49 50 51 51 52 52 53 53 53 53 52 52 52 52 52 51 51 50 50 50 49 49 48 48 48 47 47
32 33 34 35 36 37 38 39 40 42 43 44 44 45 46 47 48 49 49 50 51 52 52 53 53 53 53 53 52 52 52 51 51 50 50 50 50 49 48 48 48 48 47
31 32 33 34 35 36 37 37 38 40 41 42 43 44 45 45 46 47 48 49 50 50 51 52 52 52 52 52 51 50 50 50 49 49 49 49 48 48 47 47 47 46 45
30 32 33 34 34 35 35 36 37 38 38 39 40 41 41 42 44 45 46 47 47 47 48 48 49 49 49 48 47 47 47 47 47 47 47 47 46 46 45 45 44 44 43
29 31 33 34 34 35 35 35 35 36 36 37 37 38 39 40 40 41 42 42 43 45 45 45 45 45 45 45 45 45 45 45 46 45 45 45 44 44 43 43 42 41 40
30 31 32 33 34 34 34 34 35 35 36 37 37 38 38 39 40 41 41 41 42 43 43 43 43 43 43 44 44 44 44 44 44 44 43 43 42 42 41 40 39 38 38
31 32 33 33 34 35 35 35 35 36 36 36 37 38 39 39 39 40 40 41 41 42 42 42 42 43 43 44 44 44 43 43 43 42 41 40 40 39 39 38 37 36 35
32 33 34 34 35 36 36 36 37 37 37 38 38 38 39 39 40 41 41 41 42 42 42 42 42 42 42 42 42 42 41 41 40 40 39 39 38 38 37 36 35 34 34
35 35 36 36 37 37 38 38 38 39 39 40 40 40 41 41 42 42 42 42 42 42 42 41 41 41 41 40 39 39 38 38 37 37 37 36 36 35 35 34 33 33 32
36 37 37 37 38 38 38 38 39 39 39 40 40 40 41 41 41 41 42 42 42 42 41 41 40 39 39 38 37 36 35 35 34 34 34 34 33 33 32 32 31 30 30
36 36 37 37 38 38 38 39 38 38 39 39 39 40 40 40 41 41 41 41 41 40 40 39 38 37 36 36 34 34 33 33 32 32 31 31 30 30 30 30 30 29 29
36 36 36 37 37 37 37 38 38 38 38 38 38 38 39 39 39 39 39 39 38 38 38 37 36 36 35 34 33 32 31 31 30 30 29 29 29 29 29 29 29 28 28
36 37 37 37 37 37 37 37 37 37 37 37 37 37 37 37 37 38 38 37 37 36 36 35 34 34 33 33 32 31 31 30 30 29 28 28 28 28 28 28 28 28 28
35 36 36 37 37 37 37 37 37 37 36 36 36 36 36 36 36 36 36 36 36 35 34 33 33 32 32 31 30 30 30 30 29 28 28 28 28 28 28 28 28 28 29
36 36 36 36 36 36 37 36 36 36 36 36 36 36 36 36 36 36 35 35 34 34 33 32 32 31 31 30 30 30 30 29 28 28 28 28 28 28 28 29 29 29 30
36 37 37 37 37 37 36 36 37 37 37 37 36 36 36 36 36 35 35 34 34 33 32 31 31 31 31 30 30 30 30 29 29 28 28 28 29 29 30 30 30 30 31
Wind_Direction
224 226 229 231 233 236 238 240 243 244 245 247 249 252 255 258 260 261 263 265 266 266 266 267 267 267 268 269 271 273 274 276 276 278 280 283 285 288 289 291 292 294 296
226 227 228 231 234 236 239 241 244 247 249 250 252 253 254 257 260 262 264 265 266 267 268 268 267 268 269 270 272 274 275 275 276 277 279 281 284 287 289 291 292 293 295
224 227 229 231 234 236 238 241 244 247 249 251 253 255 256 258 260 263 264 264 265 266 267 268 269 269 271 272 274 275 276 276 277 279 280 281 282 284 286 288 290 291 293
225 228 229 233 235 238 240 242 245 247 250 252 254 255 256 258 260 262 263 264 264 265 267 268 270 271 272 274 276 276 276 276 278 280 281 282 283 285 286 287 289 290 291
226 229 232 234 236 239 240 243 244 246 249 252 254 255 257 259 260 261 263 264 265 266 267 269 270 271 273 275 276 277 278 278 279 280 281 282 284 285 288 288 288 289 290
228 231 233 235 237 239 241 243 245 246 249 251 254 256 258 259 261 262 262 263 264 266 267 269 271 272 273 274 275 277 278 278 279 280 281 282 283 285 287 287 288 289 289
232 233 235 238 239 240 242 245 246 248 249 251 253 255 257 258 259 261 263 264 266 267 268 269 270 271 272 274 275 276 277 278 280 280 281 282 283 284 285 286 286 287 288
234 235 236 238 240 241 243 245 247 249 250 252 253 255 257 258 260 262 264 265 267 268 268 268 270 272 273 274 275 276 276 278 280 280 281 281 282 283 284 284 285 285 286
238 239 239 240 242 244 245 246 248 249 251 252 254 255 257 259 261 262 263 266 267 267 269 270 271 272 274 275 275 276 277 278 279 279 280 280 281 283 283 283 284 284 285
237 239 240 243 244 245 246 248 249 251 252 254 255 257 259 260 261 262 264 266 267 268 269 271 272 272 273 274 275 277 278 279 279 279 280 280 280 281 282 283 283 284 284
238 240 242 244 245 246 247 248 249 251 253 254 255 257 258 260 261 263 264 265 267 268 269 270 272 273 274 275 276 277 277 278 279 279 278 279 280 281 281 282 282 282 282
238 240 242 244 246 247 248 249 251 252 253 255 256 257 258 260 261 262 264 265 266 267 269 270 272 273 274 275 276 277 277 277 278 278 279 279 280 280 280 280 280 281 281
239 240 241 243 245 247 248 250 251 252 253 254 255 257 258 260 261 262 263 264 265 267 268 269 270 272 273 274 274 276 277 277 277 278 278 279 279 279 279 280 280 280 280
240 241 242 244 245 247 248 250 251 252 253 254 256 257 259 260 261 262 262 263 265 266 268 269 271 272 273 273 274 275 276 276 277 277 278 278 278 278 279 279 279 279 278
241 242 244 246 247 248 249 250 251 252 253 254 256 257 259 260 261 263 264 265 266 267 268 270 271 272 273 273 275 275 276 277 277 278 278 278 278 279 278 278 278 278 278
244 244 246 247 249 250 251 252 253 254 255 256 257 258 259 261 262 264 266 267 268 269 270 271 272 273 274 275 276 277 277 277 277 278 278 278 278 278 277 277 276 275 275
247 248 248 249 249 250 252 253 254 255 256 258 259 260 260 261 263 264 266 268 269 271 272 273 274 275 276 276 277 277 277 277 277 277 277 277 277 277 276 276 275 274 273
251 250 250 251 251 252 253 255 256 257 258 259 259 261 262 263 264 265 266 268 270 271 272 273 274 275 276 276 277 277 276 276 276 275 275 276 276 275 274 274 273 272 270
255 254 253 253 254 254 255 256 257 257 258 259 259 261 262 263 264 266 267 268 269 270 272 273 274 275 276 276 276 276 276 275 275 274 275 276 276 275 273 272 271 270 269
258 257 257 256 256 256 256 257 258 258 258 259 260 261 262 263 264 266 267 268 269 270 271 272 273 274 275 275 275 275 275 274 275 275 275 275 275 274 272 271 270 269 268
259 259 258 258 258 257 257 257 258 259 259 260 261 262 263 263 264 265 266 268 269 270 271 272 272 273 273 273 273 273 273 273 274 274 274 274 273 271 271 270 269 268 269
261 260 260 259 259 258 258 258 258 259 260 261 262 262 262 263 264 265 266 267 269 269 270 270 271 271 271 272 272 271 271 271 272 272 272 272 272 272 272 271 270 270 270
264 263 261 260 260 260 259 259 259 259 260 261 261 261 262 262 263 264 265 267 268 269 269 269 269 269 269 270 269 269 269 270 271 271 271 271 270 271 271 270 270 271 273
265 264 263 262 261 261 260 259 259 259 260 260 260 260 261 262 263 264 265 266 266 267 268 268 268 268 268 268 268 268 268 269 270 271 271 271 272 272 272 272 271 272 273
266 265 264 263 262 261 261 260 260 260 260 260 260 260 261 261 262 263 264 265 264 266 266 266 266 267 267 268 268 268 269 269 269 270 270 270 271 271 271 272 272 273 273
269 267 265 263 262 262 261 261 261 261 260 260 260 260 260 261 262 262 263 263 263 264 264 264 264 265 267 267 266 267 268 268 269 270 270 271 272 272 273 273 273 273 273
Height
5758 5764 5770 5776 5781 5786 5791 5795 5799 5803 5807 5810 5813 5816 5819 5821 5823 5824 5826 5827 5828 5829 5829 5830 5830 5831 5831 5831 5831 5830 5830 5829 5828 5827 5827 5825 5823 5821 5819 5816 5814 5811 5808
5751 5758 5764 5770 5775 5780 5784 5788 5792 5796 5799 5803 5806 5808 5811 5813 5815 5817 5818 5819 5820 5821 5822 5822 5822 5822 5823 5823 5822 5822 5821 5820 5819 5818 5818 5818 5816 5813 5810 5807 5805 5802 5800
5746 5752 5758 5764 5769 5774 5778 5782 5786 5789 5792 5795 5798 5800 5802 5805 5807 5809 5810 5811 5812 5813 5813 5813 5814 5814 5814 5814 5813 5813 5812 5811 5810 5808 5807 5807 5806 5805 5803 5799 5796 5793 5791
5740 5746 5752 5758 5763 5767 5771 5774 5778 5781 5784 5787 5789 5792 5794 5796 5798 5800 5801 5802 5803 5804 5804 5804 5804 5804 5804 5804 5803 5803 5802 5801 5800 5799 5797 5796 5795 5794 5793 5790 5787 5784 5781
5735 5740 5746 5751 5755 5759 5763 5767 5770 5773 5776 5779 5781 5783 5786 5788 5789 5790 5792 5792 5793 5793 5794 5794 5794 5794 5794 5794 5793 5793 5792 5791 5790 5788 5787 5785 5784 5782 5780 5779 5777 5774 5771
5728 5733 5738 5743 5747 5751 5755 5758 5762 5765 5767 5770 5772 5774 5776 5778 5779 5780 5781 5782 5783 5783 5783 5783 5784 5784 5783 5783 5783 5782 5781 5780 5779 5778 5776 5775 5773 5771 5769 5767 5765 5763 5760
5721 5727 5731 5735 5739 5743 5746 5750 5753 5755 5758 5760 5763 5765 5766 5767 5768 5769 5770 5771 5772 5772 5772 5773 5773 5773 5772 5772 5772 5771 5770 5769 5768 5767 5765 5764 5762 5760 5758 5756 5754 5752 5750
5715 5720 5724 5728 5731 5734 5737 5740 5743 5746 5748 5751 5753 5754 5756 5757 5758 5759 5760 5761 5761 5761 5762 5761 5761 5761 5761 5760 5760 5759 5758 5757 5756 5755 5754 5752 5750 5748 5746 5744 5742 5741 5739
5709 5713 5717 5720 5723 5726 5728 5731 5734 5736 5738 5740 5742 5744 5745 5746 5747 5748 5749 5749 5750 5750 5750 5750 5750 5749 5749 5748 5748 5747 5746 5745 5744 5743 5741 5740 5738 5736 5735 5733 5731 5729 5727
5702 5706 5709 5711 5714 5717 5719 5722 5724 5726 5728 5730 5732 5733 5734 5735 5736 5737 5737 5738 5738 5738 5738 5738 5737 5737 5736 5736 5735 5735 5734 5733 5732 5730 5729 5728 5726 5725 5723 5721 5719 5717 5715
5695 5698 5701 5703 5706 5708 5710 5712 5714 5716 5718 5719 5721 5722 5723 5724 5724 5725 5725 5726 5726 5726 5726 5726 5725 5725 5724 5724 5723 5722 5722 5721 5719 5718 5717 5715 5714 5712 5711 5709 5707 5705 5703
5687 5690 5693 5695 5697 5699 5701 5703 5704 5706 5707 5708 5709 5710 5711 5712 5713 5713 5713 5713 5714 5714 5714 5713 5713 5712 5712 5711 5710 5710 5709 5708 5707 5705 5704 5703 5701 5700 5698 5696 5694 5692 5690
5680 5682 5685 5687 5688 5690 5691 5693 5694 5695 5696 5698 5699 5700 5700 5701 5701 5701 5701 5702 5702 5702 5701 5701 5700 5700 5699 5699 5698 5697 5696 5695 5694 5692 5691 5690 5688 5687 5685 5684 5682 5680 5678
5672 5674 5676 5678 5679 5681 5682 5683 5684 5685 5686 5687 5688 5689 5689 5690 5690 5690 5690 5690 5690 5689 5689 5688 5688 5688 5687 5686 5685 5685 5683 5682 5681 5680 5678 5677 5676 5674 5673 5671 5670 5668 5667
5665 5666 5668 5669 5670 5672 5673 5674 5675 5676 5676 5677 5678 5678 5679 5679 5679 5679 5679 5679 5678 5678 5677 5677 5676 5675 5675 5674 5673 5672 5671 5670 5669 5667 5666 5665 5664 5662 5661 5660 5658 5657 5656
5656 5658 5659 5660 5661 5662 5663 5664 5665 5666 5666 5667 5668 5668 5668 5669 5668 5668 5668 5667 5667 5666 5666 5665 5664 5664 5663 5662 5661 5660 5659 5658 5657 5655 5654 5653 5652 5650 5649 5648 5647 5646 5645
5648 5649 5650 5651 5652 5653 5653 5654 5655 5656 5656 5657 5657 5657 5658 5658 5657 5657 5657 5656 5656 5655 5655 5654 5653 5652 5651 5650 5649 5648 5647 5646 5645 5644 5643 5642 5640 5639 5638 5637 5636 5635 5634
5639 5640 5640 5641 5642 5643 5643 5644 5645 5645 5646 5646 5646 5647 5647 5646 5646 5646 5646 5645 5645 5644 5643 5643 5642 5641 5640 5639 5638 5636 5635 5634 5633 5632 5631 5631 5629 5628 5627 5626 5625 5625 5624
5629 5630 5630 5631 5632 5632 5633 5633 5634 5634 5635 5635 5635 5635 5635 5635 5635 5635 5635 5634 5634 5633 5632 5632 5631 5630 5629 5628 5626 5625 5624 5623 5622 5621 5621 5620 5619 5618 5617 5616 5616 5615 5615
5619 5619 5620 5620 5621 5621 5621 5622 5623 5623 5623 5623 5624 5624 5624 5624 5624 5623 5623 5623 5622 5622 5621 5620 5620 5619 5618 5617 5616 5615 5614 5613 5612 5611 5610 5610 5609 5608 5607 5607 5607 5606 5606
5608 5609 5609 5609 5609 5610 5610 5611 5611 5612 5612 5612 5612 5612 5612 5612 5612 5612 5612 5612 5611 5611 5610 5609 5609 5608 5607 5606 5606 5605 5604 5603 5602 5602 5601 5600 5600 5599 5599 5598 5598 5598 5597
5597 5597 5598 5598 5598 5598 5599 5599 5600 5600 5600 5601 5601 5601 5601 5601 5601 5601 5601 5600 5600 5600 5599 5599 5598 5598 5597 5596 5596 5595 5594 5594 5593 5593 5592 5592 5591 5591 5590 5590 5589 5589 5589
5586 5586 5586 5586 5586 5587 5587 5588 5588 5588 5589 5589 5589 5589 5589 5589 5589 5590 5590 5589 5589 5589 5588 5588 5588 5587 5587 5587 5586 5586 5585 5585 5584 5584 5583 5583 5582 5582 5582 5582 5581 5581 5581
5575 5575 5574 5574 5575 5575 5575 5576 5576 5576 5577 5577 5578 5578 5578 5578 5578 5578 5578 5578 5578 5578 5578 5578 5578 5577 5577 5577 5577 5576 5576 5576 5576 5575 5575 5574 5574 5574 5574 5573 5573 5573 5572
5564 5563 5563 5563 5563 5563 5563 5563 5564 5565 5565 5566 5566 5566 5567 5567 5567 5567 5567 5568 5568 5568 5568 5568 5568 5568 5568 5568 5568 5567 5567 5567 5567 5566 5566 5566 5566 5565 5565 5565 5564 5564 5563
5552 5551 5551 5551 5551 5551 5551 5552 5552 5553 5553 5554 5554 5555 5555 5555 5556 5556 5557 5557 5557 5557 5557 5557 5558 5558 5558 5558 5558 5558 5558 5558 5558 5558 5557 5557 5557 5556 5556 5556 5555 5554 5554